Flag for Canada Weather past 2 weeks in Whitehorse, Yukon Territory, Canada

Now
43 °F

Partly cloudy.


Feels Like: 43 °F
Forecast: 45 / 58 °F
Wind: No wind

Location: Withehorse

Current Time: Aug 30, 2014 at 5:18:05 AM

Latest Report: Aug 30, 2014 at 4:00 AM


Visibility: 15 mi

Pressure: 29.58 "Hg

Humidity: 81%

Dew point: 37 °F

Location of WhitehorseLocation

Historic Weather in Whitehorse — Graph

°F

Whitehorse temperature yesterday

Maximum temperature yesterday: 59 °F (at 3:00 PM)
Minimum temperature yesterday: 43 °F (at 5:00 AM)
Average temperature yesterday: 51 °F

Past Weeks' High & Low Weather Summary

 TemperatureHumidityPressure
High68 °F (Aug 22, 3:00 PM)100% (Aug 20, 4:00 AM)30.29 "Hg (Aug 20, 4:00 AM)
Low39 °F (Aug 27, 6:49 AM)32% (Aug 27, 6:00 PM)29.54 "Hg (Aug 29, 8:00 PM)
Average53 °F71%29.96 "Hg
* Reported Aug 15 4:00 AM — Aug 30 4:00 AM, Whitehorse, Weather by CustomWeather, © 2014

Note: Actual official high and low records may vary slightly from our data, if they occured in-between our weather recording intervals... More about our weather records

Advertising

Whitehorse weather history for previous 24 hours

 ConditionsComfort  
Time TempWeatherWind HumidityBarometerVisibility
4:00 AM
Aug 30
43 °FPartly cloudy.No wind81%29.58 "Hg15 mi
3:00 AM45 °FPartly cloudy.5 mph76%29.57 "Hg15 mi
2:00 AM46 °FPartly cloudy.7 mph76%29.57 "Hg15 mi
1:00 AM46 °FPartly cloudy.3 mph76%29.57 "Hg15 mi
12:00 AM48 °FPartly cloudy.6 mph71%29.56 "Hg15 mi
11:00 PM
Aug 29
50 °FPartly cloudy.3 mph67%29.55 "Hg15 mi
10:00 PM54 °FBroken clouds.6 mph58%29.55 "Hg15 mi
9:00 PM55 °FBroken clouds.8 mph55%29.54 "Hg40 mi
8:00 PM57 °FBroken clouds.7 mph48%29.54 "Hg40 mi
7:00 PM59 °FBroken clouds.3 mph48%29.54 "Hg40 mi
6:00 PM59 °FBroken clouds.6 mph51%29.55 "Hg40 mi
5:00 PM59 °FBroken clouds.6 mph45%29.56 "Hg40 mi
4:00 PM57 °FBroken clouds.9 mph51%29.57 "Hg40 mi
3:00 PM59 °FBroken clouds.12 mph45%29.57 "Hg40 mi
2:00 PM55 °FBroken clouds.8 mph51%29.59 "Hg40 mi
12:00 PM54 °FPartly sunny.10 mph58%29.62 "Hg40 mi
11:00 AM50 °FPartly sunny.10 mph67%29.65 "Hg40 mi
10:00 AM46 °FSprinkles. Broken clouds.14 mph76%29.67 "Hg40 mi
9:00 AM46 °FBroken clouds.15 mph76%29.68 "Hg40 mi
8:00 AM43 °FPartly sunny.9 mph81%29.69 "Hg40 mi
7:00 AM43 °FPartly cloudy.10 mph81%29.70 "Hg40 mi
6:00 AM43 °FPassing clouds.12 mph81%29.71 "Hg15 mi
5:00 AM43 °FPassing clouds.10 mph81%29.72 "Hg15 mi
Weather by CustomWeather, © 2014

See weather overviewHow to use our weather pages